Location: Lombard
(41.8800°N, 88.0080°W)
Time: 21:36:20
(UTC-05:00)

KKS-1 - Visible Passes

Search period start: 18 May 2022 00:00
Search period end: 28 May 2022 00:00
Orbit: 635 x 649 km, 98.2° (Epoch: 18 May)

Date Brightness Start Highest point End Pass type
(mag) Time Alt. Az. Time Alt. Az. Time Alt. Az.
18 May ? 21:47:19 10° NE 21:50:16 18° E 21:50:16 18° E visible
18 May ? 23:22:49 10° N 23:27:02 43° WNW 23:27:53 38° WSW visible
19 May ? 22:10:35 10° NE 22:14:33 31° E 22:14:40 31° E visible
19 May ? 23:47:17 10° NNW 23:50:55 25° WNW 23:52:18 21° W visible
20 May ? 22:34:18 10° NNE 22:38:41 56° E 22:39:03 54° ESE visible
21 May ? 00:12:12 10° NNW 00:14:44 15° WNW 00:16:41 12° W visible
21 May ? 22:58:16 10° N 23:02:44 80° WNW 23:03:27 62° SW visible
22 May ? 21:47:00 10° NE 21:49:59 17° E 21:50:12 17° E visible
22 May ? 23:22:28 10° N 23:26:42 44° WNW 23:27:49 36° WSW visible
23 May ? 22:10:15 10° NE 22:14:12 30° E 22:14:35 30° ESE visible
23 May ? 23:46:56 10° NNW 23:50:35 26° WNW 23:52:12 21° W visible
24 May ? 22:33:57 10° NNE 22:38:20 55° E 22:38:57 50° SE visible
25 May ? 00:11:48 10° NNW 00:14:24 15° WNW 00:16:35 11° W visible
25 May ? 22:57:54 10° N 23:02:22 82° WNW 23:03:20 55° SSW visible
26 May ? 21:46:40 10° NE 21:49:36 17° E 21:50:04 17° E visible
26 May ? 23:22:05 10° N 23:26:20 45° WNW 23:27:42 34° WSW visible
27 May ? 22:09:53 10° NE 22:13:49 30° E 22:14:26 29° ESE visible
27 May ? 23:46:31 10° NNW 23:50:13 26° WNW 23:52:02 20° WSW visible
